Location: Ferintosh
(52.7647°N, 112.9692°W)
Time: 21:14:59
(UTC+00:00)

A-11 Canister half - Pass Details

Date: 28 May 2024
Orbit: 1524 x 1683 km, 47.3° (Epoch: 19 June)

Event Time Altitude Azimuth Distance (km) Brightness Sun altitude
Rises 09:00:25 0° 284° (WNW) 4,748 11.5 -13.1°
Reaches altitude 10° 09:03:44 10° 277° (W) 3,783 10.9 -12.9°
Maximum altitude 09:12:13 37° 214° (SW) 2,319 9.4 -12.4°
Drops below altitude 10° 09:20:57 10° 152° (SSE) 3,885 10.8 -11.8°
Sets 09:24:26 0° 145° (SE) 4,888 11.4 -11.6°
